RH
22 23 23 21 22 28 34 40 59 63 63 67 69 72 87 87 84 79 83 81 76 71 60 58 55 38 38 41 47 43 44 44
20 24 24 25 26 26 32 41 55 58 72 82 82 86 89 89 85 82 82 80 80 79 71 70 58 40 40 49 47 53 46 48
26 26 28 31 31 31 30 39 45 56 68 72 75 77 81 82 84 84 81 81 82 76 77 74 66 42 50 55 56 51 48 53
26 28 32 35 36 36 33 36 42 52 70 69 77 82 85 92 91 89 85 82 85 81 79 76 73 55 50 60 61 61 57 59
35 37 38 40 43 42 39 38 42 48 70 78 86 89 92 88 86 84 84 84 84 81 81 80 76 62 56 58 57 60 56 64
41 42 43 45 51 54 49 46 43 48 65 77 84 84 77 76 82 86 88 89 86 82 82 82 79 69 63 60 64 64 54 57
39 40 38 38 43 54 58 49 50 54 69 77 82 86 80 78 82 86 89 91 89 87 84 84 81 75 68 61 61 65 57 58
33 33 33 37 41 46 48 53 46 50 73 69 77 81 83 82 80 84 83 91 94 91 87 88 85 79 72 65 62 63 60 59
28 29 30 31 37 41 44 44 50 54 54 73 71 75 73 72 75 80 84 84 88 87 89 86 87 84 80 73 63 61 64 61
29 27 31 31 36 42 46 48 46 52 58 60 67 70 71 72 74 75 78 82 86 90 90 89 88 88 87 83 77 74 71 68
29 28 31 32 41 46 51 49 48 53 59 61 67 60 68 70 72 77 78 82 84 91 92 92 91 89 88 87 84 79 76 72
30 30 31 33 38 42 53 55 53 55 57 63 71 75 65 72 77 75 78 83 86 92 91 92 92 92 91 90 87 83 83 83
33 30 32 36 40 41 46 56 62 62 62 64 71 75 76 73 72 84 82 83 84 88 92 92 91 92 92 92 91 86 86 86
54 42 35 34 39 44 44 47 52 62 66 72 74 76 83 78 87 75 81 86 87 90 92 93 93 92 92 92 90 88 87 85
43 41 38 32 31 34 36 42 46 54 63 69 75 80 85 85 88 98 90 84 88 93 93 93 92 91 90 90 90 90 89 88
39 36 35 35 35 36 35 38 44 45 54 62 69 74 80 85 97 100 94 99 98 93 94 92 92 92 93 92 92 93 92 92
32 29 28 36 36 36 42 48 47 49 50 60 64 73 77 86 96 99 100 100 100 100 100 97 96 95 100 99 96 96 95 95
27 26 28 34 34 36 44 51 51 50 50 59 63 70 76 82 90 96 100 100 100 100 100 99 99 97 100 100 100 97 99 100
27 29 30 33 33 33 37 40 47 51 52 63 74 78 84 80 86 92 98 99 100 100 100 100 99 99 100 100 100 99 99 99
Wind_Speed
20 20 20 20 21 22 23 20 23 22 17 15 12 12 11 11 13 14 19 16 19 16 14 15 15 13 13 14 16 14 13 12
18 18 18 18 19 21 23 22 22 16 14 14 13 14 13 12 13 19 20 18 19 17 12 13 15 16 16 16 15 17 14 14
19 16 16 16 18 20 22 23 22 20 14 14 13 13 12 13 11 14 18 20 20 19 16 15 17 15 16 17 18 15 13 15
15 12 9 8 11 16 19 21 22 21 19 13 11 10 10 10 12 12 16 20 20 20 19 16 16 14 15 18 18 21 15 15
5 9 7 6 4 6 12 18 20 20 19 15 19 12 12 11 11 12 14 20 21 22 21 19 18 14 16 18 16 17 16 18
7 7 7 6 5 4 3 11 17 19 18 17 15 16 14 12 11 15 15 15 19 21 21 20 19 15 17 20 20 21 16 16
6 4 3 7 7 5 5 6 12 14 13 19 19 19 17 14 14 12 12 12 14 20 21 19 19 18 19 19 21 23 19 17
7 4 4 4 6 6 3 4 7 11 13 19 20 20 19 19 16 14 15 12 12 17 21 20 18 21 20 19 21 22 22 19
8 6 4 5 4 5 5 4 2 6 10 14 19 20 14 16 17 12 12 14 15 19 18 20 20 20 19 18 16 17 19 18
7 7 7 6 6 6 5 5 5 4 5 8 13 18 22 19 21 17 14 15 12 17 20 21 21 20 19 18 15 19 19 20
8 8 8 7 7 6 7 6 6 6 7 6 8 15 17 20 18 19 18 15 16 18 20 20 20 21 21 20 17 16 17 15
11 10 9 9 9 9 8 7 7 7 7 7 8 10 15 15 17 18 18 16 16 16 20 20 21 20 20 20 20 20 22 20
11 9 8 9 10 10 10 9 8 8 9 9 8 10 10 13 15 14 17 18 17 17 17 20 22 21 21 22 23 21 23 23
11 12 10 8 8 10 13 12 11 9 9 9 8 8 10 10 9 15 17 15 17 17 19 21 22 23 23 24 25 24 24 24
5 4 7 11 10 9 10 12 14 12 11 10 10 8 9 9 10 8 11 17 18 17 18 18 19 21 23 24 25 24 22 22
4 6 6 10 13 13 11 11 12 13 13 13 11 10 8 7 7 7 9 5 7 16 17 19 20 21 17 22 22 21 21 20
4 7 9 9 12 12 13 13 13 13 14 14 12 12 10 5 6 5 4 4 4 5 5 12 15 12 15 19 19 17 19 18
6 8 7 7 10 12 12 14 15 14 13 16 13 11 11 7 4 3 2 4 3 4 5 6 7 9 8 11 9 8 9 11
8 9 8 8 9 10 13 13 13 14 14 15 15 12 9 8 5 4 1 2 2 3 5 4 4 3 11 14 14 8 8 7
Wind_Direction
237 228 230 232 230 222 223 208 207 205 202 204 197 197 188 184 189 188 183 185 187 190 189 184 180 183 186 183 179 181 175 172
235 233 236 231 237 229 218 218 205 202 198 192 193 194 188 188 192 189 185 185 184 185 182 175 185 188 188 182 179 177 176 167
238 234 237 235 232 229 227 217 211 204 196 196 200 200 199 200 191 192 190 187 186 185 179 178 187 186 185 183 181 174 181 174
225 216 212 219 240 232 226 220 215 206 200 197 197 196 202 196 195 190 192 189 185 188 186 183 185 189 184 183 183 181 173 176
160 189 187 186 176 237 250 224 220 208 194 196 193 193 190 198 197 196 195 193 188 189 188 185 184 185 187 187 183 182 174 187
156 143 135 116 109 106 232 244 221 213 193 196 199 202 203 195 201 198 195 196 194 194 192 190 186 190 191 188 186 193 191 191
107 94 103 105 93 84 118 184 230 220 202 200 200 208 207 204 196 197 195 193 196 196 194 193 194 191 191 195 194 195 195 197
99 61 50 54 65 68 84 132 189 228 209 210 209 208 211 213 208 203 200 195 198 199 197 195 197 197 196 194 197 198 201 197
91 78 32 23 39 44 19 0 184 195 233 220 211 215 215 216 211 201 208 204 195 196 200 201 199 203 201 196 203 203 204 207
59 43 39 20 12 25 13 343 325 281 237 236 246 220 219 216 217 213 206 204 199 197 196 200 199 197 199 197 202 205 202 208
24 26 14 12 5 356 352 343 342 324 297 273 248 246 232 221 218 219 215 210 206 191 196 198 201 200 194 193 201 205 212 207
0 4 4 359 350 354 355 349 334 323 311 305 288 283 250 235 222 216 215 209 200 195 194 194 198 200 199 199 199 198 200 206
347 356 1 347 342 339 344 345 341 324 315 309 307 298 284 259 232 224 213 208 204 199 192 196 197 197 196 197 201 203 201 202
321 338 344 349 349 341 333 334 336 325 307 305 298 301 310 292 301 248 217 209 206 200 196 197 198 199 198 201 205 205 206 206
282 290 333 337 337 341 329 322 322 322 312 305 297 294 297 296 301 295 267 216 209 200 194 196 201 202 204 204 209 210 209 213
273 310 347 334 343 340 332 320 311 311 307 296 296 291 285 291 297 287 281 267 259 207 200 202 202 204 205 208 211 210 207 205
302 321 318 329 330 335 328 313 304 309 302 295 295 296 296 286 293 293 275 248 253 228 223 218 208 212 213 216 215 208 202 199
304 301 310 304 314 319 321 311 304 301 298 290 287 283 281 280 271 252 249 258 199 184 193 196 205 215 199 181 166 206 197 217
304 297 295 302 303 307 308 297 295 288 288 282 279 275 269 282 280 298 213 217 198 165 161 145 127 127 142 147 140 139 144 154